Regional Weather Roundup
Issued by NWS

Home | Current Version | Previous Version | Graphics & Text | Print | Product List | Glossary On
Versions: 1 2 3 4 5 6 7 8 9 10 11 12 13 14 15 16 17 18 19 20 21 22 23 24 25 26 27 28 29 30 31 32 33 34 35 36 37 38 39 40 41 42 43 44 45 46 47 48 49 50
000
ASUS43 KBIS 180802
RWRND

NORTH DAKOTA REGIONAL WEATHER ROUNDUP
NATIONAL WEATHER SERVICE BISMARCK ND
200 AM CST SAT NOV 18 2017

NOTE: "FAIR" INDICATES FEW OR NO CLOUDS BELOW 12,000 FEET WITH NO
SIGNIFICANT WEATHER AND/OR OBSTRUCTIONS TO VISIBILITY.


NDZ001>003-009>011-017-180900-
NORTHWEST NORTH DAKOTA

CITY           SKY/WX    TMP DP  RH WIND       PRES   REMARKS
WILLISTON      PTCLDY    11   6  81 NW6       29.97R WCI   1
MINOT          CLOUDY    15   8  73 NW15      29.89R WCI   0
$$

NDZ018>021-031>035-040>046-180900-
SOUTHWEST NORTH DAKOTA

CITY           SKY/WX    TMP DP  RH WIND       PRES   REMARKS
BISMARCK       CLEAR     23  20  88 NW5       29.86R WCI  17
DICKINSON      CLEAR     26  21  81 NW12      29.85R WCI  16
GARRISON         N/A     17  11  77 N13       29.88R WCI   4
HETTINGER ARPT CLEAR     25  20  81 W13       29.89R WCI  14
$$

NDZ004>008-012>016-024-026-027-054-180900-
NORTHEAST NORTH DAKOTA

CITY           SKY/WX    TMP DP  RH WIND       PRES   REMARKS
GRAND FORKS    CLEAR     12   9  87 W6        29.85R WCI   3
GRND FRKS AFB  CLEAR     12   8  86 W5        29.84R WCI   4
DEVILS LAKE    CLOUDY    13  10  88 NW7       29.84R WCI   3
$$

NDZ022-023-025-028>030-036>039-047>053-180900-
SOUTHEAST NORTH DAKOTA

CITY           SKY/WX    TMP DP  RH WIND       PRES   REMARKS
FARGO          PTCLDY    20  17  88 NW6       29.83S WCI  12
JAMESTOWN      CLOUDY    17  14  88 W5        29.83R WCI  10
$$




USA.gov is the U.S. government's official web portal to all federal, state and local government web resources and services.